Regional Weather Roundup
Issued by NWS

Home | Current Version | Previous Version | Graphics & Text | Print | Product List | Glossary On
Versions: 1 2 3 4 5 6 7 8 9 10 11 12 13 14 15 16 17 18 19 20 21 22 23 24 25 26 27 28 29 30 31 32 33 34 35 36 37 38 39 40 41 42 43 44 45 46 47 48 49 50
000
ASUS44 KLIX 230810
RWRLA
LOUISIANA WEATHER ROUNDUP
NATIONAL WEATHER SERVICE NEW ORLEANS LA
300 AM CDT TUE SEP 23 2014

NOTE: "FAIR" INDICATES FEW OR NO CLOUDS BELOW 12,000 FEET WITH NO
      SIGNIFICANT WEATHER AND/OR OBSTRUCTIONS TO VISIBILITY.
      SKY/WX - SKY CONDITION AND SIGNIFICANT WEATHER.
      TMP - AIR TEMPERATURE.    DP   - DEWPOINT TEMPERATURE.
      RH  - RELATIVE HUMIDITY.  PRES - PRESSURE.
      HX  - HEAT INDEX.         WCI  - WIND CHILL INDEX.

*  THESE STATIONS ARE NOT NWS OR FAA STATIONS AND ARE NOT UNDER
   NWS QUALITY CONTROL.

LAZ040-048-061>063-065-066-069-230900-
SOUTHEAST LOUISIANA

CITY           SKY/WX    TMP DP  RH WIND       PRES   REMARKS
N.O. AUDUBON     N/A     72  55  55 MISG        N/A
N.O. INTL ARPT CLEAR     74  55  51 NE17G26   30.04F
N.O. LAKEFRONT CLEAR     74  58  57 NE23G31   30.05S
N.O. DOWNTOWN* FAIR      73  52  46 NE9       30.05S
SLIDELL        CLEAR     61  54  77 N5        30.06S
BATON ROUGE    CLEAR     62  55  77 NE7       30.08S
BOOTHVILLE     CLEAR     80  65  59 NE13G21   30.01F
BELLE CHASSE   CLEAR     70  55  59 NE10      30.04S
BOGALUSA*      FAIR      62  54  76 N5        30.09F
GALLIANO*      NOT AVBL
NEW ROADS*     FAIR      64  55  70 NE9       30.09S
GONZALES*      FAIR      64  59  83 N3        30.06S
HAMMOND*       CLEAR     64  52  63 N6        30.09R
HOUMA*         CLEAR     67  50  53 N5        30.03F
PORT FOURCHON* MOSUNNY   79  64  61 NE16      30.04F

$$

LAZ041-044-053-054-230900-
SOUTHWEST LOUISIANA

CITY           SKY/WX    TMP DP  RH WIND       PRES   REMARKS
LAKE CHARLES   CLEAR     66  56  70 NE12      30.07F
LAFAYETTE      CLEAR     63  58  83 N8        30.08S
PATTERSON      CLEAR     66  61  82 N5        30.07S
SALT POINT       N/A     70  61  73 VRB3      30.04S
NEW IBERIA     CLEAR     67  58  72 NE10      30.07F
CHENAULT AIRPK CLEAR     64  56  75 N7        30.08F

$$

LAZ027-028-230900-
CENTRAL LOUISIANA

CITY           SKY/WX    TMP DP  RH WIND       PRES   REMARKS
FORT POLK      CLEAR     64  54  70 NE5       30.11S
ALEXANDRIA INT CLEAR     63  54  72 NE6       30.11R
ALEXANDRIA     CLEAR     58  54  86 CALM      30.12S

$$

LAZ001-002-230900-
NORTHWEST LOUISIANA

CITY           SKY/WX    TMP DP  RH WIND       PRES   REMARKS
SHREVEPORT     CLEAR     64  53  67 E7        30.14F
BARKSDALE AFB  CLEAR     60  53  76 VRB3      30.15F
DTN SHREVEPORT CLEAR     61  53  75 NE3       30.15F

$$

LAZ014-016-230900-
NORTHEAST LOUISIANA

CITY           SKY/WX    TMP DP  RH WIND       PRES   REMARKS
MONROE         CLEAR     61  53  75 NE5       30.16S
TALLULAH       CLEAR     61  55  81 NE8       30.14S

$$




USA.gov is the U.S. government's official web portal to all federal, state and local government web resources and services.